Flood From: 22-02-2018 16:00 Until: 23-02-2018 16:00 warning for: Flood Level: Yellow info button

Although rather usual in this region, locally or potentially dangerous phenomena are expected. (such as local winds, summer thunderstorms, rising streams or high waves) Be aware and pay attention to the latest weather updates, especially if you carry out activities exposed to weather or close to a stream or shoreline. 


Meteo18 Weather Cam more information Meteo18 Weather Cam


Thunder radar more information blitzortung!


Rain radar more information rain snow radar


Visit our other weather sites:

Template documentation
and downloads

And another site



Weather Underground History page Text

Daily Summary for July 27, 2017 Units:  Metric    English   Both
« Previous Day
Next Day »
Daily Weekly Monthly Yearly Custom
  High: Low: Average:
Temperature: -17.8 °C -8.8 °C -7.6 °C
Dew Point: -17.8 °C -9.4 °C -8.4 °C
Humidity: Humidity % 78 % 91 %
Wind Speed: 0 km/h 0 km/h 11.6 km/h
Wind Gust: 0 km/h - -
Wind:- - WSW
Pressure: 0 hPa 34256.2 hPa -
Precipitation: 147.32 mm    
Historical Graphs
 
 
Tabular Data for July 27, 2017
Time Temperature Dew Point Pressure Wind Wind Speed Wind Gust Humidity Rainfall Rate (Hourly)
-17.8 °C -17.8 °C 0 hPa Calm     Humidity % 0 mm
00:02 -7.7 °C -8.4 °C 34347.6 hPa SSW 23.3 km/h 25.9 km/h 93 % 0 mm
00:12 -7.7 °C -8.4 °C 34347.6 hPa SSW 12.9 km/h 25.9 km/h 93 % 0 mm
00:17 -7.7 °C -8.4 °C 34361.1 hPa WSW 5.1 km/h 31.1 km/h 93 % 0 mm
00:22 -7.7 °C -8.4 °C 34361.1 hPa SW 7.7 km/h 20.8 km/h 93 % 0 mm
00:32 -7.8 °C -8.4 °C 34361.1 hPa SW 7.7 km/h 23.3 km/h 93 % 0 mm
00:37 -7.8 °C -8.4 °C 34361.1 hPa WSW 7.7 km/h 23.3 km/h 93 % 0 mm
00:42 -7.8 °C -8.4 °C 34361.1 hPa SW 15.6 km/h 23.3 km/h 93 % 0 mm
00:47 -7.8 °C -8.6 °C 34361.1 hPa SSW 7.7 km/h 23.3 km/h 92 % 0 mm
00:52 -7.8 °C -8.6 °C 34361.1 hPa West 15.6 km/h 25.9 km/h 92 % 0 mm
01:02 -7.9 °C -8.6 °C 34347.6 hPa SSW 5.1 km/h 25.9 km/h 92 % 0 mm
01:12 -8 °C -8.7 °C 34347.6 hPa WSW 5.1 km/h 25.9 km/h 92 % 0 mm
01:17 -8.1 °C -8.8 °C 34347.6 hPa WSW 5.1 km/h 20.8 km/h 92 % 0 mm
01:22 -8.1 °C -8.8 °C 34347.6 hPa SW 20.8 km/h 20.8 km/h 92 % 0 mm
01:27 -8.1 °C -8.8 °C 34347.6 hPa SSW 7.7 km/h 20.8 km/h 92 % 0 mm
01:32 -8.2 °C -8.9 °C 34347.6 hPa SW 7.7 km/h 20.8 km/h 92 % 0 mm
01:37 -8.2 °C -8.8 °C 34347.6 hPa SW 7.7 km/h 20.8 km/h 93 % 0 mm
01:42 -8.2 °C -8.8 °C 34347.6 hPa SW 12.9 km/h 20.8 km/h 93 % 0 mm
01:47 -8.2 °C -8.8 °C 34347.6 hPa SSW 2.6 km/h 20.8 km/h 93 % 0 mm
01:52 -8.3 °C -8.9 °C 34347.6 hPa SW 12.9 km/h 20.8 km/h 93 % 0 mm
01:57 -8.3 °C -8.9 °C 34347.6 hPa SW 7.7 km/h 18.2 km/h 93 % 0 mm
02:02 -8.3 °C -8.9 °C 34347.6 hPa SSW 2.6 km/h 18.2 km/h 93 % 0 mm
02:12 -8.4 °C -9 °C 34347.6 hPa SW 7.7 km/h 18.2 km/h 93 % 0 mm
02:17 -8.4 °C -9 °C 34347.6 hPa SW 10.3 km/h 20.8 km/h 93 % 0 mm
02:22 -8.4 °C -9.1 °C 34347.6 hPa SW 7.7 km/h 23.3 km/h 92 % 0 mm
02:27 -8.4 °C -9.1 °C 34347.6 hPa SSW 5.1 km/h 23.3 km/h 92 % 0 mm
02:32 -8.4 °C -9.2 °C 34347.6 hPa SW 12.9 km/h 23.3 km/h 92 % 0 mm
02:37 -8.4 °C -9.2 °C 34347.6 hPa SW 5.1 km/h 18.2 km/h 92 % 0 mm
02:42 -8.5 °C -9.2 °C 34347.6 hPa WSW 15.6 km/h 18.2 km/h 92 % 0 mm
02:47 -8.5 °C -9.2 °C 34347.6 hPa WSW 7.7 km/h 18.2 km/h 92 % 0 mm
02:52 -8.5 °C -9.2 °C 34347.6 hPa SW 7.7 km/h 18.2 km/h 92 % 0 mm
03:02 -8.5 °C -9.2 °C 34337.4 hPa SW 7.7 km/h 20.8 km/h 92 % 0 mm
03:07 -8.5 °C -9.2 °C 34337.4 hPa SW 2.6 km/h 23.3 km/h 92 % 0 mm
03:12 -8.5 °C -9.2 °C 34337.4 hPa SW 10.3 km/h 23.3 km/h 92 % 0 mm
03:17 -8.5 °C -9.2 °C 34337.4 hPa SSW 5.1 km/h 23.3 km/h 92 % 0 mm
03:22 -8.5 °C -9.2 °C 34337.4 hPa SW 5.1 km/h 20.8 km/h 92 % 0 mm
03:32 -8.5 °C -9.2 °C 34337.4 hPa SW 10.3 km/h 25.9 km/h 92 % 0 mm
03:37 -8.5 °C -9.2 °C 34337.4 hPa WSW 12.9 km/h 25.9 km/h 92 % 0 mm
03:47 -8.5 °C -9.2 °C 34337.4 hPa SSW 7.7 km/h 25.9 km/h 92 % 0 mm
03:52 -8.5 °C -9.2 °C 34337.4 hPa SW 10.3 km/h 20.8 km/h 92 % 0 mm
04:02 -8.6 °C -9.2 °C 34327.3 hPa SW 10.3 km/h 15.6 km/h 93 % 0 mm
04:12 -8.6 °C -9.2 °C 34327.3 hPa West 7.7 km/h 18.2 km/h 93 % 0 mm
04:17 -8.6 °C -9.2 °C 34327.3 hPa SSW 7.7 km/h 18.2 km/h 93 % 0 mm
04:22 -8.6 °C -9.2 °C 34337.4 hPa SW 7.7 km/h 15.6 km/h 93 % 0 mm
04:32 -8.6 °C -9.2 °C 34337.4 hPa SW 7.7 km/h 20.8 km/h 93 % 0 mm
04:37 -8.5 °C -9.1 °C 34337.4 hPa SW 12.9 km/h 20.8 km/h 93 % 0 mm
04:42 -8.5 °C -9.1 °C 34337.4 hPa SW 10.3 km/h 25.9 km/h 93 % 0 mm
04:47 -8.5 °C -9.1 °C 34327.3 hPa SSE 7.7 km/h 25.9 km/h 93 % 0 mm
04:52 -8.6 °C -9.2 °C 34327.3 hPa SW 12.9 km/h 25.9 km/h 93 % 0 mm
04:57 -8.6 °C -9.2 °C 34327.3 hPa SW 5.1 km/h 25.9 km/h 93 % 0 mm
05:02 -8.6 °C -9.2 °C 34327.3 hPa WSW 7.7 km/h 28.5 km/h 93 % 0 mm
05:12 -8.6 °C -9.2 °C 34327.3 hPa SSW 5.1 km/h 28.5 km/h 93 % 0 mm
05:17 -8.6 °C -9.2 °C 34327.3 hPa South 2.6 km/h 28.5 km/h 93 % 0 mm
05:22 -8.6 °C -9.3 °C 34327.3 hPa SW 12.9 km/h 20.8 km/h 92 % 0 mm
05:32 -8.7 °C -9.3 °C 34327.3 hPa SSW 2.6 km/h 18.2 km/h 93 % 0 mm
05:37 -8.7 °C -9.3 °C 34327.3 hPa SW 7.7 km/h 18.2 km/h 93 % 0 mm
05:42 -8.7 °C -9.3 °C 34327.3 hPa West 2.6 km/h 12.9 km/h 93 % 0 mm
05:47 -8.7 °C -9.3 °C 34327.3 hPa SW 2.6 km/h 12.9 km/h 93 % 0 mm
05:57 -8.7 °C -9.4 °C 34327.3 hPa SW 5.1 km/h 10.3 km/h 92 % 0 mm
06:02 -8.7 °C -9.4 °C 34327.3 hPa SW 7.7 km/h 18.2 km/h 92 % 0 mm
06:12 -8.7 °C -9.4 °C 34327.3 hPa SW 5.1 km/h 25.9 km/h 92 % 0 mm
06:17 -8.7 °C -9.4 °C 34327.3 hPa WSW 7.7 km/h 25.9 km/h 92 % 0 mm
06:22 -8.7 °C -9.4 °C 34327.3 hPa SW 5.1 km/h 18.2 km/h 92 % 0 mm
06:32 -8.7 °C -9.3 °C 34327.3 hPa WSW 5.1 km/h 18.2 km/h 93 % 0 mm
06:37 -8.7 °C -9.3 °C 34327.3 hPa SW 10.3 km/h 12.9 km/h 93 % 0 mm
06:42 -8.7 °C -9.3 °C 34327.3 hPa WSW 7.7 km/h 12.9 km/h 93 % 0 mm
06:47 -8.7 °C -9.3 °C 34327.3 hPa WSW 12.9 km/h 12.9 km/h 93 % 0 mm
06:52 -8.7 °C -9.3 °C 34327.3 hPa WSW 5.1 km/h 23.3 km/h 93 % 0 mm
06:57 -8.7 °C -9.3 °C 34327.3 hPa SW 7.7 km/h 23.3 km/h 94 % 0 mm
07:02 -8.7 °C -9.3 °C 34327.3 hPa SW 12.9 km/h 23.3 km/h 94 % 0 mm
07:12 -8.7 °C -9.3 °C 34327.3 hPa SW 15.6 km/h 23.3 km/h 94 % 0 mm
07:17 -8.7 °C -9.3 °C 34327.3 hPa SW 7.7 km/h 23.3 km/h 94 % 0 mm
07:22 -8.7 °C -9.3 °C 34327.3 hPa WSW 12.9 km/h 23.3 km/h 94 % 0 mm
07:32 -8.7 °C -9.2 °C 34327.3 hPa SW 12.9 km/h 23.3 km/h 95 % 0 mm
07:37 -8.7 °C -9.2 °C 34327.3 hPa SSW 10.3 km/h 23.3 km/h 95 % 0 mm
07:42 -8.8 °C -9.2 °C 34327.3 hPa WSW 23.3 km/h 25.9 km/h 95 % 0 mm
07:47 -8.8 °C -9.2 °C 34327.3 hPa SSW 7.7 km/h 25.9 km/h 95 % 0 mm
07:52 -8.8 °C -9.2 °C 34327.3 hPa SSW 18.2 km/h 28.5 km/h 95 % 0 mm
08:02 -8.8 °C -9.1 °C 34337.4 hPa SW 18.2 km/h 28.5 km/h 96 % 0 mm
08:12 -8.8 °C -9.1 °C 34327.3 hPa SW 18.2 km/h 28.5 km/h 96 % 0 mm
08:17 -8.8 °C -9.1 °C 34337.4 hPa WSW 15.6 km/h 28.5 km/h 96 % 0 mm
08:27 -8.8 °C -9.1 °C 34337.4 hPa SW 12.9 km/h 25.9 km/h 96 % 12.7 mm
08:32 -8.8 °C -9.1 °C 34337.4 hPa SW 10.3 km/h 31.1 km/h 96 % 12.7 mm
08:42 -8.7 °C -9.1 °C 34337.4 hPa SSW 12.9 km/h 25.9 km/h 96 % 12.7 mm
08:52 -8.7 °C -9 °C 34337.4 hPa South 12.9 km/h 25.9 km/h 96 % 20.32 mm
08:57 -8.7 °C -9 °C 34337.4 hPa SW 20.8 km/h 25.9 km/h 96 % 20.32 mm
09:02 -8.7 °C -9 °C 34337.4 hPa WSW 15.6 km/h 33.6 km/h 96 % 20.32 mm
09:12 -8.7 °C -9 °C 34327.3 hPa SW 15.6 km/h 33.6 km/h 96 % 20.32 mm
09:17 -8.7 °C -9 °C 34337.4 hPa SW 15.6 km/h 33.6 km/h 96 % 20.32 mm
09:22 -8.7 °C -9 °C 34337.4 hPa WSW 7.7 km/h 33.6 km/h 96 % 12.7 mm
09:27 -8.7 °C -9 °C 34337.4 hPa WSW 15.6 km/h 33.6 km/h 96 % 12.7 mm
09:32 -8.7 °C -9 °C 34337.4 hPa WSW 20.8 km/h 33.6 km/h 96 % 7.62 mm
09:42 -8.6 °C -8.9 °C 34337.4 hPa SW 15.6 km/h 33.6 km/h 96 % 7.62 mm
09:52 -8.6 °C -8.9 °C 34337.4 hPa SW 10.3 km/h 33.6 km/h 96 % 0 mm
09:57 -8.5 °C -8.8 °C 34337.4 hPa WSW 12.9 km/h 33.6 km/h 96 % 0 mm
10:02 -8.5 °C -8.8 °C 34337.4 hPa SW 15.6 km/h 33.6 km/h 96 % 7.62 mm
10:12 -8.4 °C -8.8 °C 34337.4 hPa SW 10.3 km/h 28.5 km/h 96 % 7.62 mm
10:17 -8.4 °C -8.8 °C 34337.4 hPa SW 23.3 km/h 28.5 km/h 96 % 7.62 mm
10:22 -8.4 °C -8.8 °C 34337.4 hPa SW 10.3 km/h 31.1 km/h 96 % 12.7 mm
10:32 -8.4 °C -8.7 °C 34337.4 hPa SW 15.6 km/h 36.2 km/h 96 % 12.7 mm
10:37 -8.3 °C -8.7 °C 34337.4 hPa SW 18.2 km/h 36.2 km/h 96 % 12.7 mm
10:42 -8.3 °C -8.6 °C 34327.3 hPa WSW 7.7 km/h 36.2 km/h 96 % 12.7 mm
10:47 -8.3 °C -8.6 °C 34327.3 hPa SW 12.9 km/h 36.2 km/h 96 % 12.7 mm
10:52 -8.3 °C -8.6 °C 34337.4 hPa SW 18.2 km/h 25.9 km/h 96 % 12.7 mm
10:57 -8.2 °C -8.6 °C 34337.4 hPa SW 20.8 km/h 25.9 km/h 96 % 12.7 mm
11:02 -8.3 °C -8.6 °C 34337.4 hPa SW 20.8 km/h 36.2 km/h 96 % 12.7 mm
11:07 -8.2 °C -8.6 °C 34337.4 hPa SSW 7.7 km/h 36.2 km/h 96 % 12.7 mm
11:12 -8.2 °C -8.6 °C 34327.3 hPa SW 25.9 km/h 36.2 km/h 96 % 12.7 mm
11:17 -8.2 °C -8.6 °C 34327.3 hPa SW 15.6 km/h 36.2 km/h 96 % 12.7 mm
11:22 -8.2 °C -8.5 °C 34327.3 hPa SW 15.6 km/h 36.2 km/h 96 % 12.7 mm
11:27 -8.1 °C -8.4 °C 34327.3 hPa WSW 20.8 km/h 36.2 km/h 96 % 12.7 mm
11:32 -8.1 °C -8.4 °C 34327.3 hPa SW 25.9 km/h 38.8 km/h 96 % 12.7 mm
11:37 -8 °C -8.3 °C 34313.7 hPa SSW 20.8 km/h 38.8 km/h 96 % 12.7 mm
11:42 -7.9 °C -8.3 °C 34327.3 hPa SW 44.1 km/h 44.1 km/h 96 % 12.7 mm
11:47 -8 °C -8.4 °C 34313.7 hPa SW 23.3 km/h 44.1 km/h 95 % 12.7 mm
11:52 -7.9 °C -8.3 °C 34313.7 hPa SW 18.2 km/h 44.1 km/h 96 % 12.7 mm
12:02 -8 °C -8.4 °C 34313.7 hPa SSW 12.9 km/h 41.4 km/h 95 % 12.7 mm
12:12 -7.9 °C -8.4 °C 34313.7 hPa SSW 15.6 km/h 41.4 km/h 95 % 12.7 mm
12:17 -7.9 °C -8.3 °C 34313.7 hPa WSW 23.3 km/h 41.4 km/h 95 % 12.7 mm
12:22 -7.9 °C -8.2 °C 34313.7 hPa South 28.5 km/h 38.8 km/h 96 % 7.62 mm
12:32 -7.8 °C -8.2 °C 34303.6 hPa WSW 20.8 km/h 38.8 km/h 96 % 7.62 mm
12:37 -7.8 °C -8.3 °C 34303.6 hPa WSW 23.3 km/h 41.4 km/h 95 % 7.62 mm
12:42 -7.7 °C -8.1 °C 34303.6 hPa SW 18.2 km/h 41.4 km/h 96 % 7.62 mm
12:47 -7.7 °C -8.2 °C 34303.6 hPa SW 33.6 km/h 41.4 km/h 95 % 7.62 mm
12:52 -7.7 °C -8 °C 34303.6 hPa SW 20.8 km/h 41.4 km/h 96 % 7.62 mm
13:02 -7.7 °C -8.1 °C 34303.6 hPa SW 20.8 km/h 41.4 km/h 95 % 7.62 mm
13:12 -7.7 °C -8.1 °C 34303.6 hPa SW 15.6 km/h 41.4 km/h 95 % 7.62 mm
13:17 -7.7 °C -8.1 °C 34303.6 hPa WSW 18.2 km/h 41.4 km/h 95 % 7.62 mm
13:27 -7.6 °C -8 °C 34293.4 hPa SW 18.2 km/h 38.8 km/h 95 % 7.62 mm
13:32 -7.6 °C -8 °C 34293.4 hPa SW 18.2 km/h 36.2 km/h 95 % 7.62 mm
13:37 -7.6 °C -8 °C 34293.4 hPa WSW 15.6 km/h 36.2 km/h 95 % 7.62 mm
13:42 -7.5 °C -7.9 °C 34293.4 hPa SW 5.1 km/h 36.2 km/h 96 % 0 mm
13:52 -7.4 °C -7.9 °C 34293.4 hPa SW 15.6 km/h 36.2 km/h 95 % 0 mm
13:57 -7.4 °C -7.8 °C 34293.4 hPa WSW 18.2 km/h 36.2 km/h 95 % 0 mm
14:02 -7.3 °C -7.8 °C 34293.4 hPa WSW 12.9 km/h 41.4 km/h 95 % 0 mm
14:12 -7.3 °C -7.8 °C 34293.4 hPa WSW 23.3 km/h 44.1 km/h 95 % 7.62 mm
14:17 -7.2 °C -7.7 °C 34293.4 hPa SW 10.3 km/h 44.1 km/h 95 % 7.62 mm
14:22 -7.1 °C -7.6 °C 34293.4 hPa West 20.8 km/h 49.2 km/h 95 % 7.62 mm
14:32 -7.1 °C -7.7 °C 34293.4 hPa WSW 18.2 km/h 41.4 km/h 94 % 7.62 mm
14:37 -7 °C -7.6 °C 34279.9 hPa SW 23.3 km/h 41.4 km/h 94 % 7.62 mm
14:42 -6.9 °C -7.6 °C 34279.9 hPa WSW 15.6 km/h 38.8 km/h 93 % 7.62 mm
14:47 -6.8 °C -7.5 °C 34279.9 hPa SW 12.9 km/h 38.8 km/h 92 % 7.62 mm
14:52 -6.7 °C -7.4 °C 34279.9 hPa SW 25.9 km/h 36.2 km/h 92 % 7.62 mm
15:02 -6.7 °C -7.6 °C 34279.9 hPa WSW 33.6 km/h 38.8 km/h 91 % 7.62 mm
15:12 -6.8 °C -7.6 °C 34279.9 hPa WSW 20.8 km/h 38.8 km/h 91 % 0 mm
15:17 -6.6 °C -7.3 °C 34279.9 hPa SW 10.3 km/h 38.8 km/h 92 % 7.62 mm
15:22 -6.4 °C -7.5 °C 34279.9 hPa SW 18.2 km/h 33.6 km/h 89 % 7.62 mm
15:27 -6.4 °C -7.4 °C 34279.9 hPa WSW 18.2 km/h 36.2 km/h 89 % 7.62 mm
15:32 -6.2 °C -7.3 °C 34269.7 hPa SW 15.6 km/h 36.2 km/h 89 % 7.62 mm
15:42 -6.4 °C -7.6 °C 34269.7 hPa WSW 44.1 km/h 44.1 km/h 88 % 7.62 mm
15:47 -6.6 °C -7.7 °C 34279.9 hPa SSW 10.3 km/h 54.4 km/h 89 % 7.62 mm
15:52 -6.6 °C -7.4 °C 34269.7 hPa SSW 25.9 km/h 54.4 km/h 91 % 7.62 mm
16:02 -6.6 °C -7.4 °C 34279.9 hPa West 15.6 km/h 46.7 km/h 91 % 7.62 mm
16:12 -6.9 °C -8 °C 34269.7 hPa WNW 28.5 km/h 51.8 km/h 88 % 7.62 mm
16:17 -6.9 °C -7.9 °C 34269.7 hPa WNW 20.8 km/h 51.8 km/h 90 % 0 mm
16:22 -6.9 °C -7.8 °C 34269.7 hPa West 15.6 km/h 38.8 km/h 90 % 0 mm
16:27 -6.8 °C -7.7 °C 34269.7 hPa West 15.6 km/h 38.8 km/h 90 % 0 mm
16:32 -6.7 °C -7.7 °C 34269.7 hPa West 10.3 km/h 33.6 km/h 90 % 0 mm
16:37 -6.6 °C -7.7 °C 34269.7 hPa WSW 12.9 km/h 31.1 km/h 89 % 0 mm
16:42 -6.6 °C -7.5 °C 34269.7 hPa West 5.1 km/h 31.1 km/h 90 % 0 mm
16:47 -6.6 °C -7.6 °C 34256.2 hPa WSW 10.3 km/h 31.1 km/h 89 % 0 mm
16:52 -6.5 °C -7.6 °C 34269.7 hPa WNW 20.8 km/h 20.8 km/h 89 % 0 mm
16:57 -6.7 °C -7.7 °C 34269.7 hPa WNW 20.8 km/h 20.8 km/h 90 % 33.02 mm
17:02 -6.9 °C -7.6 °C 34269.7 hPa West 10.3 km/h 31.1 km/h 92 % 33.02 mm
17:12 -7.1 °C -7.8 °C 34269.7 hPa West 10.3 km/h 31.1 km/h 92 % 50.8 mm
17:17 -7 °C -7.7 °C 34269.7 hPa West 18.2 km/h 25.9 km/h 93 % 83.82 mm
17:22 -6.9 °C -7.6 °C 34269.7 hPa West 12.9 km/h 28.5 km/h 93 % 83.82 mm
17:27 -6.8 °C -7.5 °C 34269.7 hPa West 10.3 km/h 28.5 km/h 93 % 83.82 mm
17:32 -6.7 °C -7.4 °C 34269.7 hPa SW 10.3 km/h 28.5 km/h 92 % 83.82 mm
17:37 -6.5 °C -7.2 °C 34269.7 hPa SW 12.9 km/h 31.1 km/h 92 % 83.82 mm
17:42 -6.4 °C -7.2 °C 34269.7 hPa SW 12.9 km/h 31.1 km/h 92 % 83.82 mm
17:47 -6.4 °C -7.3 °C 34269.7 hPa West 7.7 km/h 36.2 km/h 91 % 83.82 mm
17:52 -6.4 °C -7.1 °C 34269.7 hPa SSW 7.7 km/h 38.8 km/h 92 % 83.82 mm
17:57 -6.3 °C -7.1 °C 34269.7 hPa WSW 12.9 km/h 38.8 km/h 91 % 38.1 mm
18:02 -6.2 °C -7.1 °C 34269.7 hPa WSW 15.6 km/h 38.8 km/h 91 % 38.1 mm
18:12 -6.1 °C -7.1 °C 34269.7 hPa WSW 7.7 km/h 33.6 km/h 90 % 38.1 mm
18:17 -6.1 °C -7 °C 34269.7 hPa WSW 7.7 km/h 31.1 km/h 90 % 7.62 mm
18:22 -6.1 °C -7 °C 34269.7 hPa WSW 12.9 km/h 31.1 km/h 90 % 7.62 mm
18:27 -6.1 °C -7 °C 34269.7 hPa West 7.7 km/h 28.5 km/h 90 % 0 mm
18:32 -6.1 °C -7.1 °C 34256.2 hPa SW 5.1 km/h 28.5 km/h 89 % 0 mm
18:42 -5.9 °C -7 °C 34256.2 hPa SW 5.1 km/h 23.3 km/h 89 % 0 mm
18:52 -5.8 °C -7 °C 34256.2 hPa SW 10.3 km/h 23.3 km/h 88 % 0 mm
18:57 -5.7 °C -7 °C 34256.2 hPa West 12.9 km/h 20.8 km/h 87 % 0 mm
19:02 -5.6 °C -7.1 °C 34256.2 hPa SW 15.6 km/h 20.8 km/h 85 % 0 mm
19:07 -5.6 °C -7.1 °C 34256.2 hPa West 7.7 km/h 28.5 km/h 85 % 0 mm
19:12 -5.6 °C -7.3 °C 34256.2 hPa WNW 5.1 km/h 28.5 km/h 83 % 0 mm
19:17 -5.6 °C -7.2 °C 34256.2 hPa West 15.6 km/h 28.5 km/h 83 % 0 mm
19:22 -5.6 °C -7.3 °C 34256.2 hPa WSW 12.9 km/h 25.9 km/h 82 % 0 mm
19:27 -5.6 °C -7.5 °C 34256.2 hPa West 7.7 km/h 33.6 km/h 81 % 0 mm
19:32 -5.6 °C -7.4 °C 34256.2 hPa West 7.7 km/h 33.6 km/h 82 % 0 mm
19:37 -5.6 °C -7.4 °C 34256.2 hPa WNW 7.7 km/h 28.5 km/h 82 % 0 mm
19:42 -5.6 °C -7.3 °C 34256.2 hPa SW 5.1 km/h 23.3 km/h 83 % 0 mm
19:47 -5.6 °C -7.5 °C 34256.2 hPa WSW 5.1 km/h 23.3 km/h 81 % 0 mm
19:52 -5.6 °C -7.5 °C 34256.2 hPa WSW 10.3 km/h 20.8 km/h 81 % 0 mm
19:57 -5.6 °C -7.5 °C 34256.2 hPa WNW 5.1 km/h 28.5 km/h 81 % 0 mm
20:02 -5.6 °C -7.5 °C 34256.2 hPa WSW 12.9 km/h 28.5 km/h 81 % 0 mm
20:12 -5.7 °C -7.6 °C 34256.2 hPa WSW 7.7 km/h 28.5 km/h 81 % 0 mm
20:17 -5.7 °C -7.7 °C 34269.7 hPa West 7.7 km/h 15.6 km/h 80 % 0 mm
20:22 -5.8 °C -7.8 °C 34269.7 hPa WSW 7.7 km/h 18.2 km/h 80 % 0 mm
20:32 -5.9 °C -8 °C 34269.7 hPa West 5.1 km/h 18.2 km/h 79 % 0 mm
20:42 -6 °C -8 °C 34269.7 hPa WNW 2.6 km/h 18.2 km/h 80 % 0 mm
20:47 -6.1 °C -8.1 °C 34269.7 hPa SW 5.1 km/h 12.9 km/h 80 % 0 mm
20:52 -6.1 °C -8.1 °C 34279.9 hPa West 5.1 km/h 12.9 km/h 80 % 0 mm
20:57 -6.2 °C -8.2 °C 34279.9 hPa WSW 7.7 km/h 12.9 km/h 80 % 0 mm
21:02 -6.2 °C -8.2 °C 34279.9 hPa WSW 7.7 km/h 12.9 km/h 80 % 0 mm
21:12 -6.3 °C -8.3 °C 34293.4 hPa WSW 2.6 km/h 15.6 km/h 80 % 0 mm
21:17 -6.3 °C -8.4 °C 34293.4 hPa Calm   15.6 km/h 79 % 0 mm
21:27 -6.3 °C -8.4 °C 34293.4 hPa West 10.3 km/h 12.9 km/h 79 % 0 mm
21:32 -6.3 °C -8.6 °C 34293.4 hPa WNW 7.7 km/h 12.9 km/h 78 % 0 mm
21:37 -6.4 °C -8.5 °C 34293.4 hPa NW 5.1 km/h 15.6 km/h 79 % 0 mm
21:42 -6.5 °C -8.4 °C 34293.4 hPa NW 5.1 km/h 15.6 km/h 81 % 0 mm
21:47 -6.6 °C -8.4 °C 34293.4 hPa NW 5.1 km/h 15.6 km/h 82 % 0 mm
21:52 -6.7 °C -8.4 °C 34293.4 hPa Calm   12.9 km/h 83 % 0 mm
21:57 -6.8 °C -8.3 °C 34303.6 hPa NNW 2.6 km/h 10.3 km/h 84 % 0 mm
22:02 -6.8 °C -8.3 °C 34303.6 hPa Calm   10.3 km/h 85 % 0 mm
22:12 -7 °C -8.4 °C 34313.7 hPa NNW 10.3 km/h 10.3 km/h 85 % 0 mm
22:17 -7.1 °C -8.5 °C 34313.7 hPa NW 5.1 km/h 7.7 km/h 85 % 0 mm
22:22 -7.1 °C -8.6 °C 34313.7 hPa West 2.6 km/h 10.3 km/h 85 % 0 mm
22:32 -7.1 °C -8.6 °C 34327.3 hPa Calm   10.3 km/h 85 % 0 mm
22:42 -7.2 °C -8.6 °C 34327.3 hPa Calm   5.1 km/h 85 % 0 mm
22:47 -7.2 °C -8.7 °C 34327.3 hPa Calm   5.1 km/h 85 % 0 mm
22:52 -7.3 °C -8.6 °C 34327.3 hPa NNW 2.6 km/h 5.1 km/h 86 % 0 mm
22:57 -7.3 °C -8.7 °C 34327.3 hPa NNW 2.6 km/h 2.6 km/h 86 % 0 mm
23:02 -7.3 °C -8.7 °C 34327.3 hPa NNW 2.6 km/h 5.1 km/h 86 % 0 mm
23:12 -7.4 °C -8.7 °C 34327.3 hPa Calm   5.1 km/h 86 % 0 mm
23:17 -7.4 °C -8.7 °C 34327.3 hPa Calm   2.6 km/h 87 % 0 mm
23:22 -7.4 °C -8.7 °C 34337.4 hPa Calm   2.6 km/h 87 % 0 mm
23:27 -7.5 °C -8.6 °C 34337.4 hPa Calm   2.6 km/h 88 % 0 mm
23:37 -7.6 °C -8.6 °C 34337.4 hPa Calm     89 % 0 mm
23:42 -7.7 °C -8.6 °C 34347.6 hPa Calm     90 % 0 mm
23:52 -7.7 °C -8.7 °C 34347.6 hPa Calm     90 % 0 mm
Meteo18
Compliments of Weather Underground - 4 mb

Script developed by  Jim McMurry - jmcmurry@mwt.net Adapted for the template by  Wim van der Kuil - Leuven-Template.eu

You find our weather info also at:

European Weather Network

Weather Underground

Equipment we use:

Weather-station
Davis Vue

Weather-program
Meteobridge

Weather-server
Raspberry PI 2 B+

Provider
1 and 1

Davis Vue

Meteobridge

Raspberry PI 2 B+

1 and 1